Location: Unspecified
(42.9300°N, 71.1866°W)
Time: 14:15:22
(UTC-04:00)

Genesis I - Visible Passes

Search period start: 02 July 2015 00:00
Search period end: 12 July 2015 00:00
Orbit: 487 x 558 km, 64.5° (Epoch: 02 July)

Date Brightness Start Highest point End Pass type
(mag) Time Alt. Az. Time Alt. Az. Time Alt. Az.
02 Jul 5.4 00:09:10 10° WNW 00:11:16 17° W 00:11:16 17° W visible
02 Jul 3.8 22:16:59 10° NNW 22:21:01 49° NE 22:22:56 27° ESE visible
02 Jul 5.4 23:55:50 10° WNW 23:58:03 16° WSW 23:58:03 16° WSW visible
03 Jul 3.7 22:03:29 10° NNW 22:07:33 53° NE 22:09:46 24° ESE visible
03 Jul 5.5 23:42:30 10° WNW 23:44:53 15° WSW 23:44:53 15° WSW visible
04 Jul 3.6 21:49:58 10° NNW 21:54:04 57° NE 21:56:38 21° SE visible
04 Jul 5.5 23:29:12 10° WNW 23:31:31 14° WSW 23:31:46 14° WSW visible
05 Jul 3.5 21:36:29 10° NNW 21:40:36 62° NE 21:43:33 18° SE visible
05 Jul 5.6 23:15:57 10° W 23:18:00 13° WSW 23:18:41 13° WSW visible
06 Jul 3.4 21:22:59 10° NNW 21:27:07 67° NE 21:30:32 14° SE visible
06 Jul 5.7 23:02:44 10° W 23:04:29 12° WSW 23:05:40 11° SW visible
07 Jul 3.4 21:09:29 10° NNW 21:13:38 72° NE 21:17:33 11° SE visible
07 Jul 5.9 22:49:36 10° W 22:50:58 11° WSW 22:52:06 10° SW visible
08 Jul 3.4 20:55:59 10° NNW 21:00:08 78° NE 21:04:11 10° SE visible
08 Jul 6.0 22:36:44 10° W 22:37:26 10° WSW 22:37:54 10° WSW visible
